This is the latest recevied weather packets stored in our database for station/object IT9FDP-13. If no packets are shown the sender has not sent any weather packets the latest 10 day(s).
| Time | Temp. | Humidity | Pressure | Rain* | Wind** | Luminosity | Snow |
|---|---|---|---|---|---|---|---|
| 1777323923 | 17.22° C | 78% | 1015.8 hPa | 0 mm | - | - | - |
| 1777321821 | 17.22° C | 78% | 1015.9 hPa | 0 mm | - | - | - |
| 1777317320 | 17.78° C | 77% | 1016.3 hPa | 0 mm | - | - | - |
| 1777316422 | 17.78° C | 76% | 1016.2 hPa | 0 mm | - | - | - |
| 1777314319 | 17.78° C | 75% | 1015.9 hPa | 0 mm | - | - | - |
| 1777314016 | 17.78° C | 75% | 1015.8 hPa | 0 mm | - | - | - |
| 1777311665 | 18.33° C | 74% | 1015.8 hPa | 0 mm | - | - | - |
| 1777310122 | 18.33° C | 73% | 1015.7 hPa | 0 mm | - | - | - |
| 1777308325 | 18.89° C | 72% | 1015.7 hPa | 0 mm | - | - | - |
| 1777306821 | 18.89° C | 72% | 1015.6 hPa | 0 mm | - | - | - |
| 1777305921 | 18.89° C | 72% | 1015.8 hPa | 0 mm | - | - | - |
| 1777305019 | 18.89° C | 71% | 1015.9 hPa | 0 mm | - | - | - |
| 1777304723 | 18.89° C | 71% | 1015.9 hPa | 0 mm | - | - | - |
| 1777304125 | 18.89° C | 71% | 1015.8 hPa | 0 mm | - | - | - |
| 1777303818 | 18.89° C | 70% | 1015.7 hPa | 0 mm | - | - | - |
| 1777303528 | 19.44° C | 70% | 1015.7 hPa | 0 mm | - | - | - |
| 1777302323 | 19.44° C | 68% | 1015.7 hPa | 0 mm | - | - | - |
| 1777299920 | 20° C | 67% | 1015.9 hPa | 0 mm | - | - | - |
| 1777293640 | 20° C | 66% | 1016.6 hPa | 0 mm | - | - | - |
| 1777293325 | 20° C | 66% | 1016.7 hPa | 0 mm | - | - | - |
| 1777292425 | 20.56° C | 65% | 1016.8 hPa | 0 mm | - | - | - |
| 1777291222 | 21.11° C | 65% | 1016.6 hPa | 0 mm | - | - | - |
| 1777289722 | 20° C | 67% | 1016.8 hPa | 0 mm | - | - | - |
| 1777289419 | 20° C | 67% | 1016.9 hPa | 0 mm | - | - | - |
| 1777288820 | 20° C | 67% | 1017 hPa | 0 mm | - | - | - |
* Rain latest hour (hover to see other rain measurements)
** Current wind speed in m/s (hover to see current wind gust speed)